When you browse on this site, cookies collect data to enhance your experience and personalize the content and advertising you see.
Visit our Privacy Policy to learn more. By continuing to use the site, you agree to this use of cookies and data.
  • In Lithuania
  • List of Countries
  • For 7 days
  • Water Temperature
  • Weather Map
  • Weather Widgets
  • user-avatar
    Login

    Hourly Weather Jewłach

    Today, 23 January, Thursday

    Time Temperature Precipitation Wind Pressure Humidity
    00:00 +3°C° 0 mm 6 mps 761 mmHg 55%
    01:00 +3°C° 0 mm 6 mps 760 mmHg 56%
    02:00 +2°C° 0 mm 6 mps 760 mmHg 57%
    03:00 +2°C° 0 mm 5 mps 759 mmHg 61%
    04:00 +2°C° 0 mm 5 mps 759 mmHg 61%
    05:00 +2°C° 0 mm 5 mps 758 mmHg 61%
    06:00 +2°C° 0 mm 5 mps 758 mmHg 61%
    07:00 +2°C° 0 mm 6 mps 757 mmHg 58%
    08:00 +3°C° 0 mm 6 mps 757 mmHg 54%
    09:00 +4°C° 0 mm 7 mps 756 mmHg 51%
    10:00 +5°C° 0 mm 7 mps 755 mmHg 45%
    11:00 +6°C° 0 mm 8 mps 755 mmHg 40%
    12:00 +9°C° 0 mm 8 mps 754 mmHg 35%
    13:00 +9°C° 0 mm 8 mps 753 mmHg 35%
    14:00 +8°C° 0 mm 9 mps 753 mmHg 34%
    15:00 +10°C° 0 mm 9 mps 753 mmHg 34%
    16:00 +8°C° 0 mm 9 mps 753 mmHg 36%
    17:00 +7°C° 0 mm 8 mps 754 mmHg 39%
    18:00 +6°C° 0 mm 8 mps 755 mmHg 41%
    19:00 +6°C° 0 mm 7 mps 755 mmHg 42%
    20:00 +6°C° 0 mm 7 mps 756 mmHg 44%
    21:00 +5°C° 0 mm 7 mps 756 mmHg 45%
    22:00 +5°C° 0 mm 7 mps 756 mmHg 46%
    23:00 +5°C° 0 mm 7 mps 757 mmHg 48%

    Tomorrow, 24 January, Friday

    Time Temperature Precipitation Wind Pressure Humidity
    00:00 +5°C° 0 mm 7 mps 757 mmHg 49%
    01:00 +4°C° 0 mm 8 mps 758 mmHg 49%
    02:00 +3°C° 0 mm 9 mps 758 mmHg 50%
    03:00 +3°C° 0 mm 9 mps 759 mmHg 50%
    04:00 +3°C° 0 mm 10 mps 760 mmHg 48%
    05:00 +3°C° 0 mm 10 mps 760 mmHg 45%
    06:00 +3°C° 0 mm 10 mps 761 mmHg 43%
    07:00 +3°C° 0 mm 9 mps 761 mmHg 41%
    08:00 +3°C° 0 mm 9 mps 762 mmHg 40%
    09:00 +4°C° 0 mm 8 mps 763 mmHg 38%
    10:00 +5°C° 0 mm 8 mps 763 mmHg 35%
    11:00 +5°C° 0 mm 8 mps 763 mmHg 32%
    12:00 +6°C° 0 mm 8 mps 763 mmHg 28%
    13:00 +6°C° 0 mm 8 mps 763 mmHg 27%
    14:00 +6°C° 0 mm 8 mps 764 mmHg 26%
    15:00 +6°C° 0 mm 8 mps 764 mmHg 25%
    16:00 +5°C° 0 mm 6 mps 765 mmHg 30%
    17:00 +6°C° 0 mm 4 mps 766 mmHg 34%
    18:00 +6°C° 0 mm 2 mps 766 mmHg 39%
    19:00 +5°C° 0 mm 2 mps 767 mmHg 47%
    20:00 +4°C° 0 mm 2 mps 768 mmHg 54%
    21:00 +3°C° 0 mm 2 mps 769 mmHg 61%
    22:00 +3°C° 0 mm 2 mps 770 mmHg 62%
    23:00 +2°C° 0 mm 2 mps 770 mmHg 63%

    Day after tomorrow, 25 January, Saturday

    Time Temperature Precipitation Wind Pressure Humidity
    00:00 +2°C° 0 mm 2 mps 770 mmHg 63%
    01:00 +2°C° 0 mm 2 mps 770 mmHg 60%
    02:00 +1°C° 0 mm 3 mps 771 mmHg 57%
    03:00 0°C° 0 mm 4 mps 771 mmHg 54%
    04:00 0°C° 0 mm 3 mps 771 mmHg 57%
    05:00 0°C° 0 mm 3 mps 771 mmHg 61%
    06:00 -1°C° 0 mm 2 mps 771 mmHg 64%
    07:00 +1°C° 0 mm 2 mps 771 mmHg 62%
    08:00 +2°C° 0 mm 2 mps 771 mmHg 59%
    09:00 +2°C° 0 mm 2 mps 771 mmHg 56%
    10:00 +2°C° 0 mm 3 mps 770 mmHg 50%
    11:00 +4°C° 0 mm 4 mps 769 mmHg 43%
    12:00 +5°C° 0 mm 4 mps 768 mmHg 37%
    13:00 +5°C° 0 mm 5 mps 768 mmHg 35%
    14:00 +5°C° 0 mm 5 mps 768 mmHg 34%
    15:00 +6°C° 0 mm 5 mps 767 mmHg 32%
    16:00 +5°C° 0 mm 4 mps 767 mmHg 34%
    17:00 +4°C° 0 mm 3 mps 767 mmHg 36%
    18:00 +4°C° 0 mm 2 mps 767 mmHg 37%
    19:00 +4°C° 0 mm 2 mps 767 mmHg 39%
    20:00 +3°C° 0 mm 2 mps 767 mmHg 40%
    21:00 +3°C° 0 mm 2 mps 767 mmHg 41%
    22:00 +3°C° 0 mm 2 mps 767 mmHg 43%
    23:00 +3°C° 0 mm 1 mps 766 mmHg 44%

    26 January, Sunday

    Time Temperature Precipitation Wind Pressure Humidity
    00:00 +3°C° 0 mm 1 mps 766 mmHg 46%
    01:00 +3°C° 0 mm 1 mps 766 mmHg 45%
    02:00 +2°C° 0 mm 2 mps 766 mmHg 44%
    03:00 +1°C° 0 mm 2 mps 765 mmHg 44%
    04:00 +1°C° 0 mm 2 mps 765 mmHg 44%
    05:00 +1°C° 0 mm 2 mps 765 mmHg 45%
    06:00 0°C° 0 mm 3 mps 764 mmHg 46%
    07:00 +1°C° 0 mm 3 mps 764 mmHg 43%
    08:00 +2°C° 0 mm 3 mps 764 mmHg 40%
    09:00 +3°C° 0 mm 4 mps 764 mmHg 37%
    10:00 +5°C° 0 mm 5 mps 764 mmHg 33%
    11:00 +7°C° 0 mm 6 mps 763 mmHg 29%
    12:00 +8°C° 0 mm 7 mps 762 mmHg 24%
    13:00 +9°C° 0 mm 7 mps 762 mmHg 23%
    14:00 +10°C° 0 mm 6 mps 762 mmHg 22%
    15:00 +11°C° 0 mm 6 mps 762 mmHg 21%
    16:00 +9°C° 0 mm 5 mps 763 mmHg 25%
    17:00 +8°C° 0 mm 4 mps 763 mmHg 28%
    18:00 +8°C° 0 mm 3 mps 763 mmHg 31%
    19:00 +7°C° 0 mm 3 mps 764 mmHg 32%
    20:00 +7°C° 0 mm 3 mps 764 mmHg 33%
    21:00 +7°C° 0 mm 2 mps 765 mmHg 33%
    22:00 +5°C° 0 mm 3 mps 765 mmHg 34%
    23:00 +5°C° 0 mm 3 mps 765 mmHg 35%

    27 January, Monday

    Time Temperature Precipitation Wind Pressure Humidity
    00:00 +5°C° 0 mm 4 mps 766 mmHg 36%
    01:00 +4°C° 0 mm 4 mps 766 mmHg 38%
    02:00 +4°C° 0 mm 3 mps 767 mmHg 40%
    03:00 +4°C° 0 mm 3 mps 767 mmHg 42%
    04:00 +3°C° 0 mm 3 mps 767 mmHg 45%
    05:00 +3°C° 0 mm 3 mps 768 mmHg 48%
    06:00 +2°C° 0 mm 3 mps 768 mmHg 52%
    07:00 +3°C° 0 mm 3 mps 769 mmHg 52%
    08:00 +3°C° 0 mm 3 mps 770 mmHg 52%
    09:00 +4°C° 0 mm 3 mps 771 mmHg 53%
    10:00 +5°C° 0 mm 3 mps 771 mmHg 53%
    11:00 +6°C° 0 mm 4 mps 771 mmHg 54%
    12:00 +8°C° 0 mm 4 mps 771 mmHg 55%
    13:00 +8°C° 0 mm 4 mps 771 mmHg 55%
    14:00 +8°C° 0 mm 4 mps 771 mmHg 56%
    15:00 +8°C° 0 mm 4 mps 771 mmHg 57%
    16:00 +8°C° 0 mm 3 mps 771 mmHg 60%
    17:00 +8°C° 0 mm 3 mps 772 mmHg 64%
    18:00 +7°C° 0 mm 3 mps 772 mmHg 68%
    19:00 +7°C° 0 mm 3 mps 773 mmHg 69%
    20:00 +7°C° 0 mm 3 mps 773 mmHg 69%
    21:00 +6°C° 0 mm 4 mps 773 mmHg 70%
    22:00 +5°C° 0 mm 3 mps 773 mmHg 73%
    23:00 +5°C° 0 mm 3 mps 773 mmHg 76%

    28 January, Tuesday

    Time Temperature Precipitation Wind Pressure Humidity
    00:00 +5°C° 0 mm 2 mps 773 mmHg 79%
    01:00 +5°C° 0 mm 2 mps 772 mmHg 79%
    02:00 +6°C° 0 mm 1 mps 772 mmHg 80%
    03:00 +5°C° 0 mm 0 mps 772 mmHg 80%
    04:00 +5°C° 0 mm 0 mps 771 mmHg 81%
    05:00 +4°C° 0 mm 0 mps 771 mmHg 82%
    06:00 +5°C° 0 mm 1 mps 771 mmHg 83%
    07:00 +6°C° 0 mm 1 mps 770 mmHg 80%
    08:00 +6°C° 0 mm 1 mps 770 mmHg 77%
    09:00 +6°C° 0 mm 2 mps 770 mmHg 74%
    10:00 +7°C° 0 mm 2 mps 769 mmHg 67%
    11:00 +7°C° 0 mm 2 mps 768 mmHg 60%
    12:00 +8°C° 0 mm 3 mps 768 mmHg 53%
    13:00 +9°C° 0 mm 3 mps 767 mmHg 51%
    14:00 +9°C° 0 mm 3 mps 767 mmHg 49%
    15:00 +9°C° 0 mm 3 mps 766 mmHg 47%
    16:00 +8°C° 0 mm 2 mps 766 mmHg 51%
    17:00 +9°C° 0 mm 1 mps 766 mmHg 55%
    18:00 +7°C° 0 mm 0 mps 767 mmHg 59%
    19:00 +6°C° 0 mm 0 mps 767 mmHg 61%
    20:00 +6°C° 0 mm 0 mps 767 mmHg 62%
    21:00 +5°C° 0 mm 0 mps 767 mmHg 63%
    22:00 +5°C° 0 mm 0 mps 767 mmHg 65%
    23:00 +5°C° 0 mm 0 mps 767 mmHg 66%
    Show more